  直後にMPECが出たので,仕方なしに,再度計算しました.何も,変わりません.



 南半球では,11月30日までの観測が報告されています.彗星は,12月6日には,

我国での天文薄明終了時の高度角がプラスとなり,20日頃まで,この状態が続き

ます. MPCの締切り前までに,我国からの観測の報告が望まれます.なお,宇都

宮氏の発見観測は,充分な精度で報告されていたようです.





    C/2000 W1 (Utsunomiya-Jones) 

T 2000 Dec. 26.55924 TT                                 Nakano

q   0.3211522            (2000.0)            P               Q

                   Peri.   51.50514     +0.74892678     -0.65962045

                   Node    10.75735     -0.66264941     -0.74579951

e   1.0            Incl.  160.16884     +0.00210532     -0.09318770

From 51 observations 2000 Nov. 26-30.



                                                                     Evening

 18h TT  R.A.(2000) Decl.    Delta   r      Mot./PA   Elong. Mag.    Twillight 

           h  m       。  ,                    ,     。    。    m1     h。    A。  

Dec.  1  19 04.32  -52 52.9  0.374  0.754  251.8/ 20   42.6   7.1  -12.0   31.9

      2  19 13.15  -48 55.3  0.401  0.733  219.4/ 18   41.1   7.2   -8.7   34.1

      3  19 19.57  -45 25.8  0.429  0.712  191.4/ 16   39.9   7.2   -5.9   36.3

      4  19 24.33  -42 21.5  0.460  0.690  167.4/ 14   38.8   7.2   -3.5   38.3

      5  19 27.92  -39 39.1  0.492  0.669  146.9/ 13   37.8   7.2   -1.6   40.2

      6  19 30.62  -37 15.7  0.524  0.647  129.4/ 11   36.9   7.2   -0.0   42.0

      7  19 32.63  -35 08.6  0.558  0.626  114.5/  9   35.9   7.2   +1.2   43.7

      8  19 34.09  -33 15.5  0.592  0.605  101.8/  7   35.0   7.2   +2.2   45.4

      9  19 35.09  -31 34.4  0.627  0.583   91.0/  5   34.1   7.1   +3.0   47.1

     10  19 35.69  -30 03.8  0.663  0.562   81.7/  2   33.1   7.1   +3.5   48.7

     11  19 35.94  -28 42.2  0.699  0.541   73.7/359   32.1   7.1   +3.8   50.3

     12  19 35.87  -27 28.5  0.735  0.520   66.9/356   31.1   7.0   +4.0   51.8

     13  19 35.51  -26 21.7  0.771  0.499   61.3/352   30.0   6.9   +4.0   53.3

     14  19 34.86  -25 21.1  0.808  0.479   56.5/347   28.9   6.8   +3.9   54.8

     15  19 33.95  -24 25.9  0.845  0.459   52.8/342   27.7   6.7   +3.7   56.3

     16  19 32.76  -23 35.7  0.882  0.439   49.9/336   26.5   6.7   +3.3   57.8

     17  19 31.31  -22 49.9  0.919  0.421   48.0/330   25.2   6.6   +2.8   59.2

     18  19 29.59  -22 08.3  0.955  0.403   46.9/324   23.9   6.5   +2.2   60.7

     19  19 27.59  -21 30.5  0.992  0.386   46.7/317   22.5   6.4   +1.4   62.1

     20  19 25.33  -20 56.2  1.027  0.371   47.2/311   21.1   6.3   +0.6   63.5

     21  19 22.79  -20 25.3  1.062  0.357   48.2/305   19.6   6.2   -0.4   64.9

     22  19 19.98  -19 57.5  1.096  0.345   49.8/300   18.1   6.1   -1.4   66.3

     23  19 16.92  -19 32.9  1.129  0.335   51.5/295   16.5   6.0   -2.6   67.7

     24  19 13.62  -19 11.2  1.160  0.328   53.2/291   14.9   6.0   -3.9   69.1

     25  19 10.12  -18 52.3  1.190  0.323   54.7/287   13.2   6.0   -5.2   70.5

     26  19 06.44  -18 36.1  1.217  0.321   55.9/284   11.5   6.0   -6.6   71.9

     27  19 02.63  -18 22.3  1.243  0.322   56.6/282    9.9   6.1   -8.1   73.2

     28  18 58.74  -18 10.9  1.265  0.326   56.7/279    8.4   6.1   -9.7   74.5

     29  18 54.82  -18 01.4  1.286  0.332   56.4/278    7.0   6.3  -11.3   75.8

     30  18 50.90  -17 53.8  1.304  0.341   55.7/276    5.9   6.4  -12.9   77.0

     31  18 47.02  -17 47.8  1.319  0.352   54.6/275    5.3   6.6  -14.5   78.3

Jan.  1  18 43.22  -17 43.2  1.333  0.365   53.2/274    5.4   6.8  -16.1   79.5

NAKANO

         **** Don't distribute anyone except personal use only ****

                (C) Copyright 2000 OAA/ComputingSection

write mail from CFAD0::NAKANO on 2000-12-01 04:19:57(JST).

 

◎C/2000 W1の軌道と予報位置です

 熊本県阿蘇郡南小国町の宇都宮章吾氏は,11月19日早朝, 15-cm双眼鏡を使用

して,南天ほ座に8等級の新彗星を発見しました.リニアーサーベイの発見では

なく,しかも,久しぶりに北半球で見つけられた明るい彗星であるため,世界各

国多くの観測家が捜索しましたが,この彗星は,動きが速く,また,我が国では,

折からの悪天候のため,晴れ間に恵まれた22日早朝に試みられた捜索では,彗星

がすでに南の地平線下に動いていってしまったため,北半球からは確認できませ

んでした.それから,1週間後の25日23時すぎ(日本時間)にニュージランドの

ジョーンズから,空の南極近くにあるふうちょう座に新彗星を発見したという報

告あり,この彗星が宇都宮氏の発見した新彗星と同一天体であることが判明しま

した.彗星はこの6.7日間に空を46゚も移動(日々運動にして6゚.8)していました.

宇都宮氏は,これで3個目の新彗星を発見,我が国で新彗星が発見されたのは,

1997年10月3日に同じく同氏が発見した1997 T1以来,何と3年1カ月ぶりのこと

です.

 なお,この彗星は来年1月には北半球でも,観測可能になりますが,その前の

12月中旬に夕方の空に一時的に姿を表します.彗星のH(10)= 10.5等と暗く,太

陽表面を通過できる限界式(H1= 7.0 + 6*q)で求まるH1= 8.9等以下です.この

ため,蒸発しないで近日点を通過できるかは,微妙なところです.



    C/2000 W1 (Utsunomiya-Jones) 

T 2000 Dec. 26.56360 TT                                 Nakano

q   0.3214576            (2000.0)            P               Q

                   Peri.   51.46650     +0.74940350     -0.65907798

                   Node    10.76016     -0.66211010     -0.74627405

e   1.0            Incl.  160.17141     +0.00214793     -0.09322694

From 9 observations 2000 Nov. 18-26.



 18h JST R.A.(2000) Decl.    Delta   r      Mot./PA   Elong. Mag.  Twillight

           h  m       。  ,                    ,     。    。    m1     h。     A。 

Nov. 25  13 13.44  -76 42.3  0.280  0.880+ 468.9/105   59.8   7.2  -45.2   11.9

     26  15 30.38  -76 31.4  0.285  0.859  446.4/ 72   55.7   7.1  -38.4   16.5

     27  17 08.31  -72 43.6  0.295  0.838  412.0/ 48   52.1   7.1  -31.9   20.4

     28  18 02.18  -67 33.8  0.309  0.818  371.3/ 35   49.0   7.1  -26.0   23.7

     29  18 32.80  -62 17.0  0.327  0.797  329.0/ 28   46.4   7.1  -20.6   26.7

     30  18 51.76  -57 20.4  0.349  0.775  288.6/ 23   44.3   7.1  -16.0   29.4

Dec.  1  19 04.37  -52 52.7  0.374  0.754  251.9/ 20   42.6   7.1  -12.0   31.9

      2  19 13.21  -48 55.1  0.401  0.733  219.5/ 18   41.1   7.2   -8.7   34.1

      3  19 19.62  -45 25.6  0.429  0.712  191.4/ 16   39.9   7.2   -5.9   36.2

      4  19 24.39  -42 21.3  0.460  0.690  167.4/ 14   38.8   7.2   -3.5   38.3

      5  19 27.97  -39 38.9  0.492  0.669  146.9/ 13   37.8   7.2   -1.6   40.2

      6  19 30.68  -37 15.5  0.524  0.647  129.4/ 11   36.9   7.2   -0.0   42.0

      7  19 32.69  -35 08.4  0.558  0.626  114.5/  9   36.0   7.2   +1.2   43.7

      8  19 34.15  -33 15.3  0.592  0.605  101.8/  7   35.0   7.2   +2.2   45.4

      9  19 35.15  -31 34.2  0.627  0.583   91.0/  5   34.1   7.1   +3.0   47.1

     10  19 35.75  -30 03.6  0.663  0.562   81.7/  2   33.1   7.1   +3.5   48.7

     11  19 36.00  -28 42.0  0.699  0.541   73.7/359   32.1   7.1   +3.9   50.3

     12  19 35.93  -27 28.3  0.735  0.520   66.9/356   31.1   7.0   +4.0   51.8

     13  19 35.57  -26 21.6  0.771  0.499   61.2/352   30.0   6.9   +4.1   53.3

     14  19 34.92  -25 20.9  0.808  0.479   56.5/347   28.9   6.8   +3.9   54.8

     15  19 34.01  -24 25.8  0.845  0.459   52.8/342   27.7   6.8   +3.7   56.3

     16  19 32.82  -23 35.6  0.882  0.440   49.9/336   26.5   6.7   +3.3   57.8

     17  19 31.37  -22 49.8  0.919  0.421   48.0/330   25.3   6.6   +2.8   59.2

     18  19 29.65  -22 08.2  0.955  0.403   46.9/324   23.9   6.5   +2.2   60.6

     19  19 27.66  -21 30.4  0.992  0.386   46.7/317   22.6   6.4   +1.4   62.1

     20  19 25.40  -20 56.1  1.027  0.371   47.1/311   21.1   6.3   +0.6   63.5

     21  19 22.86  -20 25.2  1.062  0.357   48.2/305   19.6   6.2   -0.4   64.9

     22  19 20.06  -19 57.5  1.096  0.345   49.7/300   18.1   6.1   -1.4   66.3

     23  19 17.00  -19 32.8  1.129  0.336   51.4/295   16.5   6.0   -2.6   67.7

     24  19 13.71  -19 11.1  1.160  0.328   53.1/291   14.9   6.0   -3.8   69.1

     25  19 10.21  -18 52.2  1.190  0.323   54.6/287   13.2   6.0   -5.2   70.5

     26  19 06.54  -18 36.0  1.217  0.322   55.8/284   11.6   6.0   -6.6   71.8

NAKANO

         **** Don't distribute anyone except personal use only ****

                (C) Copyright 2000 OAA/ComputingSection

write mail from CFAD0::NAKANO on 2000-11-27 18:26:08(JST).

 

戻ります。